Vorticity
3 9 10 6 5 9 10 10 11 13 14 9 11 2 3 12 8 7 5 25 20 -17 8 18 17 14 6 12 13 14 12 8 6 9 9 4 10 13 12 8 8 11 10
2 5 5 2 5 9 9 8 7 7 8 11 12 5 9 5 10 10 5 12 34 18 5 0 0 7 6 10 6 8 8 11 10 8 8 10 8 18 25 18 10 9 4
5 4 6 1 6 6 4 5 7 10 11 9 8 9 10 9 11 2 20 5 -3 17 1 -1 5 -7 -5 1 -1 -9 11 8 0 5 9 15 16 -6 -14 -16 2 4 7
3 9 4 5 5 4 2 3 4 5 6 6 7 8 10 14 7 5 12 6 7 9 18 8 4 15 28 25 28 34 18 14 11 7 13 -2 11 -5 3 -17 -3 1 5
1 3 6 4 5 4 3 3 3 0 -3 -3 -0 2 6 7 8 7 -2 13 9 10 12 -2 10 -4 30 16 8 -14 36 18 13 2 9 10 8 -13 -8 1 -3 1 4
3 2 4 5 5 4 4 4 1 0 4 5 5 6 5 6 8 7 8 8 1 -2 1 6 -3 -12 3 -8 -13 -9 -26 -30 -4 -26 9 3 3 4 10 9 8 4 5
4 2 4 4 5 5 4 4 4 1 4 4 3 3 5 6 7 8 10 11 8 7 9 14 8 11 18 -11 -47 8 10 6 7 9 5 4 4 4 3 3 5 6 5
5 5 5 4 4 4 4 3 2 2 4 4 3 4 4 5 5 5 6 6 7 8 8 6 6 12 -8 1 10 6 5 5 4 4 5 4 4 4 5 6 5 5 5
2 5 4 4 6 5 4 4 5 5 5 4 5 4 4 4 3 3 4 3 4 4 4 5 6 6 6 6 5 4 4 4 4 5 6 7 8 7 5 4 4 5 6
7 6 5 4 5 5 5 5 4 6 7 5 5 5 5 4 4 2 2 2 2 2 3 4 5 5 5 4 5 5 6 7 5 6 6 5 5 5 5 5 5 7 9
7 9 8 8 8 9 9 6 7 6 5 5 4 5 6 6 6 8 8 6 5 5 5 6 8 9 10 8 8 9 8 6 5 5 4 3 3 4 8 10 9 8 8
6 7 7 7 7 7 6 5 6 5 5 5 4 4 4 5 2 7 7 12 12 11 11 10 8 7 5 6 6 5 5 5 4 3 4 6 8 7 6 5 6 7 6
6 3 5 4 4 4 5 5 5 5 3 3 4 4 4 4 3 9 5 7 8 5 6 5 4 3 1 2 5 6 6 5 5 5 7 7 5 5 4 6 6 5 7
4 5 3 3 2 3 5 3 3 2 4 5 2 4 6 3 7 6 1 9 10 -3 2 9 7 4 4 5 4 4 4 4 7 7 5 5 3 6 4 6 7 4 4
3 4 4 1 1 4 4 3 3 6 1 2 4 0 -2 6 6 6 9 1 4 8 1 4 9 4 6 6 5 4 4 1 3 5 5 5 5 4 8 4 5 6 7
2 6 3 5 4 2 6 5 -1 4 7 4 3 2 -0 -5 18 8 -13 18 10 1 -2 7 -0 8 6 3 6 6 2 2 7 8 7 6 5 3 2 7 6 10 12
1 4 8 -0 -0 -4 2 1 10 -3 13 11 -0 -5 22 1 -8 18 19 4 19 13 -3 10 7 7 4 6 5 8 4 2 11 5 2 7 7 3 5 6 8 8 10
1 14 5 54 38 -0 20 -20 8 -11 20 -21 3 -2 -23 12 12 12 1 8 2 -4 16 11 -2 10 9 9 3 2 9 10 5 -3 9 6 4 5 2 10 7 2 4
12 -15 4 -12 50 -7 -28 31 45 17 -5 -17 6 -27 32 19 -2 15 1 4 -6 13 9 12 6 5 4 2 9 10 -3 2 12 9 6 3 9 5 2 3 2 11 8
4 6 6 -11 12 -3 3 -12 -30 -8 11 10 12 -2 5 28 -3 -2 6 -6 21 11 14 7 10 10 1 8 8 -1 2 2 5 7 10 13 3 1 3 10 8 9 4
5 2 -0 1 2 5 8 6 4 8 1 2 -16 -17 17 17 0 12 22 9 7 6 10 5 3 7 6 11 1 7 3 0 11 13 8 6 -3 5 8 12 10 3 6
7 7 8 8 7 7 6 2 5 5 0 2 5 14 18 19 29 -3 13 7 17 11 6 4 17 5 2 -9 3 3 6 9 8 6 7 4 2 7 8 7 5 9 11
9 7 14 6 11 9 11 12 10 11 9 9 7 14 15 17 -16 11 6 10 10 2 10 9 -1 13 9 11 -5 6 14 1 16 4 -4 -1 9 7 10 4 8 11 9
4 34 31 7 12 7 8 7 8 11 9 13 7 8 -2 -12 5 5 10 7 4 5 5 14 24 14 9 9 14 8 12 8 14 -1 3 2 2 9 5 7 11 12 8
20 27 1 4 6 10 11 9 8 9 11 13 9 12 18 17 7 7 5 -1 3 -26 0 6 -26 19 1 -19 -18 11 11 4 -5 11 15 6 12 9 7 12 16 11 6
7 -13 -4 -2 -4 -1 -0 -1 1 11 10 12 15 14 16 -0 -6 -17 8 2 2 -6 -0 -3 0 12 -6 -4 10 4 -7 4 13 16 14 12 7 10 11 14 9 6 4
Height
5836 5839 5841 5843 5846 5849 5850 5852 5854 5855 5857 5858 5859 5861 5861 5863 5864 5866 5866 5867 5870 5871 5872 5873 5873 5871 5872 5873 5874 5875 5876 5876 5876 5877 5877 5878 5878 5878 5878 5877 5876 5878 5876
5833 5836 5839 5841 5844 5846 5849 5850 5853 5854 5856 5857 5858 5860 5860 5860 5862 5864 5865 5865 5864 5866 5869 5871 5871 5870 5871 5870 5872 5873 5873 5873 5874 5875 5876 5876 5876 5876 5876 5877 5876 5876 5875
5830 5834 5837 5840 5842 5844 5848 5849 5851 5853 5855 5856 5857 5859 5859 5860 5861 5862 5863 5863 5864 5864 5865 5869 5868 5868 5869 5870 5869 5869 5871 5871 5873 5873 5874 5874 5875 5874 5873 5873 5874 5873 5872
5827 5831 5835 5838 5840 5842 5845 5848 5850 5852 5854 5855 5855 5857 5858 5859 5859 5860 5862 5862 5863 5862 5864 5866 5866 5867 5866 5868 5867 5867 5869 5869 5871 5871 5871 5872 5872 5873 5872 5871 5870 5871 5868
5825 5828 5832 5835 5838 5841 5844 5846 5848 5850 5852 5853 5854 5856 5857 5858 5859 5860 5860 5863 5863 5864 5866 5865 5864 5864 5864 5866 5866 5867 5869 5870 5870 5870 5871 5871 5870 5870 5870 5869 5868 5867 5864
5820 5825 5829 5832 5835 5838 5841 5844 5846 5848 5850 5852 5853 5854 5856 5856 5857 5858 5859 5861 5862 5863 5864 5864 5864 5863 5867 5866 5866 5866 5868 5868 5869 5870 5870 5868 5868 5867 5866 5865 5864 5862 5860
5815 5820 5824 5828 5831 5834 5837 5840 5842 5845 5847 5849 5851 5852 5853 5854 5855 5856 5857 5859 5859 5860 5861 5863 5863 5863 5862 5862 5858 5862 5863 5864 5864 5865 5865 5864 5863 5861 5860 5859 5858 5856 5855
5811 5815 5819 5822 5826 5830 5833 5835 5838 5841 5843 5845 5847 5849 5850 5852 5852 5853 5854 5855 5856 5857 5859 5859 5859 5861 5861 5860 5858 5859 5859 5859 5858 5859 5859 5859 5857 5855 5855 5853 5851 5848 5847
5805 5809 5813 5817 5821 5825 5828 5831 5834 5836 5839 5841 5843 5845 5847 5848 5849 5850 5851 5852 5853 5854 5855 5856 5856 5856 5856 5855 5854 5854 5854 5853 5853 5853 5852 5851 5851 5849 5848 5847 5844 5841 5839
5799 5804 5807 5811 5815 5819 5822 5825 5828 5831 5833 5836 5838 5840 5843 5844 5845 5846 5847 5848 5848 5848 5849 5850 5851 5851 5850 5850 5849 5849 5849 5848 5847 5846 5845 5844 5844 5842 5842 5840 5838 5836 5833
5792 5796 5801 5805 5809 5813 5816 5819 5822 5825 5828 5830 5833 5835 5837 5838 5840 5841 5842 5842 5843 5843 5843 5844 5844 5844 5844 5844 5844 5844 5843 5842 5841 5840 5839 5838 5837 5835 5834 5832 5829 5827 5824
5785 5789 5794 5798 5802 5806 5810 5813 5816 5819 5822 5825 5827 5829 5831 5832 5833 5835 5836 5836 5837 5837 5837 5838 5838 5838 5838 5838 5838 5837 5837 5836 5835 5834 5833 5832 5830 5828 5826 5824 5821 5819 5816
5779 5784 5788 5792 5795 5799 5802 5806 5809 5812 5815 5818 5820 5822 5823 5825 5826 5828 5829 5829 5831 5831 5832 5832 5832 5832 5832 5831 5831 5831 5830 5829 5828 5826 5824 5823 5821 5819 5816 5814 5811 5809 5806
5772 5775 5780 5784 5787 5791 5795 5797 5802 5805 5807 5810 5812 5814 5816 5817 5818 5820 5821 5822 5823 5824 5825 5825 5825 5825 5825 5824 5823 5823 5822 5821 5820 5819 5817 5814 5812 5810 5807 5805 5802 5800 5797
5763 5768 5772 5775 5778 5783 5786 5789 5793 5796 5799 5801 5803 5805 5807 5809 5810 5811 5812 5813 5814 5816 5816 5817 5817 5817 5817 5817 5816 5816 5814 5814 5812 5811 5809 5806 5804 5801 5799 5796 5793 5790 5786
5751 5757 5762 5766 5770 5774 5777 5780 5783 5787 5790 5792 5794 5796 5798 5799 5800 5802 5802 5804 5804 5806 5807 5807 5808 5807 5807 5807 5807 5807 5806 5804 5803 5801 5799 5797 5795 5792 5789 5785 5783 5780 5776
5740 5747 5753 5757 5759 5763 5766 5770 5774 5777 5779 5781 5784 5786 5787 5788 5790 5791 5792 5793 5795 5796 5797 5797 5797 5797 5797 5797 5797 5796 5795 5794 5793 5790 5788 5787 5784 5780 5778 5775 5772 5768 5764
5727 5731 5741 5740 5741 5749 5749 5755 5760 5764 5769 5770 5773 5775 5776 5777 5779 5780 5781 5783 5784 5785 5786 5786 5786 5786 5786 5786 5786 5785 5784 5783 5781 5778 5776 5774 5771 5769 5766 5763 5759 5755 5751
5716 5719 5725 5731 5729 5735 5742 5742 5747 5752 5756 5760 5760 5763 5765 5765 5768 5769 5770 5772 5773 5773 5774 5775 5775 5775 5775 5775 5774 5774 5772 5771 5769 5767 5765 5762 5759 5755 5752 5749 5746 5742 5738
5707 5712 5714 5722 5723 5727 5731 5733 5737 5739 5743 5746 5750 5752 5754 5755 5757 5758 5759 5760 5761 5761 5762 5762 5763 5763 5763 5762 5762 5761 5760 5759 5757 5754 5751 5749 5746 5743 5739 5736 5732 5728 5724
5694 5699 5703 5707 5711 5716 5719 5722 5725 5726 5731 5735 5738 5739 5743 5744 5745 5746 5747 5748 5749 5749 5750 5750 5750 5750 5750 5749 5749 5748 5747 5745 5743 5740 5739 5736 5733 5729 5725 5722 5717 5713 5710
5680 5685 5690 5694 5698 5703 5705 5709 5713 5716 5719 5722 5725 5727 5731 5733 5733 5734 5734 5735 5735 5737 5738 5738 5738 5737 5736 5735 5735 5733 5732 5731 5729 5727 5725 5722 5719 5715 5712 5707 5703 5699 5694
5668 5672 5677 5680 5685 5689 5694 5697 5700 5702 5704 5708 5712 5715 5718 5719 5720 5720 5721 5722 5723 5723 5723 5723 5724 5723 5722 5720 5719 5719 5718 5717 5715 5712 5710 5708 5702 5700 5695 5692 5686 5683 5679
5655 5659 5664 5667 5670 5674 5679 5682 5685 5688 5691 5694 5697 5701 5703 5705 5706 5706 5707 5708 5709 5708 5710 5710 5709 5708 5708 5706 5705 5704 5702 5700 5698 5695 5693 5690 5686 5683 5679 5676 5671 5668 5664
5642 5646 5649 5653 5656 5661 5664 5668 5671 5673 5676 5679 5682 5685 5688 5690 5691 5692 5693 5693 5693 5694 5695 5695 5694 5694 5692 5691 5689 5687 5686 5684 5682 5680 5676 5674 5671 5667 5664 5661 5657 5652 5649
5625 5630 5633 5637 5641 5646 5650 5654 5655 5658 5661 5664 5667 5668 5670 5671 5672 5673 5675 5676 5677 5679 5680 5679 5679 5678 5677 5675 5674 5672 5670 5668 5665 5664 5658 5657 5654 5650 5648 5643 5641 5637 5633